Home > Time Zones > World Clock > Weather > U.S.A. > Adak > Past weeks

Flag for U.S.A. Weather past 2 weeks in Adak, Alaska, U.S.A.

Now
48 °F

Clear.


Feels Like: 46 °F
Forecast: 48 / 56 °F
Wind: 5 mph from Southwest

Location: Adak

Current Time: Sep 5, 2015 at 2:19:26 AM

Latest Report: Sep 5, 2015 at 1:56 AM


Visibility: 10 mi

Pressure: 30.09 "Hg

Humidity: 71%

Dew point: 39 °F

Location of AdakLocation

Historic Weather in Adak — Graph

°F

Adak temperature yesterday

Maximum temperature yesterday: 59 °F (at 4:56 PM)
Minimum temperature yesterday: 46 °F (at 11:56 PM)
Average temperature yesterday: 53 °F

Past Weeks' High & Low Weather Summary

 TemperatureHumidityPressure
High68 °F (Aug 27, 2:36 PM)88% (Sep 1, 12:16 AM)30.60 "Hg (Sep 1, 12:16 AM)
Low36 °F (Aug 22, 5:56 AM)51% (Aug 22, 2:36 PM)29.68 "Hg (Sep 1, 3:36 AM)
Average55 °F74%30.14 "Hg
* Reported Aug 21 1:16 AM — Sep 5 1:16 AM, Adak, Weather by CustomWeather, © 2015

Note: Actual official high and low records may vary slightly from our data, if they occured in-between our weather recording intervals... More about our weather records

Advertising

Adak weather history for previous 24 hours

 ConditionsComfort  
Time TempWeatherWind HumidityBarometerVisibility
1:16 AM
Sat, Sep 5
48 °FClear.7 mph76%30.09 "Hg10 mi
12:56 AM48 °FClear.7 mph71%30.09 "Hg10 mi
12:36 AM48 °FClear.5 mph76%30.10 "Hg10 mi
12:16 AM48 °FClear.6 mph76%30.10 "Hg10 mi
11:56 PM
Fri, Sep 4
46 °FClear.5 mph76%30.09 "Hg10 mi
11:36 PM48 °FClear.6 mph71%30.09 "Hg10 mi
11:16 PM48 °FClear.7 mph76%30.09 "Hg10 mi
10:56 PM48 °FClear.9 mph71%30.09 "Hg10 mi
10:36 PM48 °FClear.8 mph71%30.08 "Hg10 mi
10:16 PM48 °FClear.6 mph71%30.09 "Hg10 mi
9:56 PM52 °FPassing clouds.8 mph67%30.08 "Hg10 mi
9:36 PM52 °FOvercast.10 mph72%30.08 "Hg10 mi
9:16 PM54 °FOvercast.8 mph67%30.08 "Hg10 mi
8:56 PM54 °FOvercast.8 mph67%30.07 "Hg10 mi
8:36 PM55 °FOvercast.8 mph67%30.07 "Hg10 mi
8:16 PM55 °FOvercast.7 mph67%30.07 "Hg10 mi
7:56 PM55 °FOvercast.8 mph67%30.06 "Hg10 mi
7:36 PM55 °FOvercast.8 mph67%30.06 "Hg10 mi
7:16 PM57 °FOvercast.9 mph63%30.06 "Hg10 mi
6:56 PM57 °FOvercast.10 mph63%30.06 "Hg10 mi
6:36 PM57 °FOvercast.12 mph63%30.06 "Hg10 mi
6:16 PM57 °FOvercast.10 mph63%30.06 "Hg10 mi
5:56 PM57 °FMostly cloudy.12 mph63%30.05 "Hg10 mi
5:36 PM59 °FOvercast.10 mph59%30.05 "Hg10 mi
5:16 PM57 °FOvercast.9 mph63%30.05 "Hg10 mi
4:56 PM59 °FOvercast.10 mph59%30.05 "Hg10 mi
4:36 PM57 °FOvercast.10 mph63%30.04 "Hg10 mi
4:16 PM57 °FOvercast.8 mph63%30.05 "Hg10 mi
3:56 PM57 °FOvercast.7 mph63%30.05 "Hg10 mi
3:36 PM57 °FOvercast.10 mph63%30.06 "Hg10 mi
3:16 PM57 °FOvercast.10 mph67%30.06 "Hg10 mi
2:56 PM57 °FOvercast.13 mph63%30.05 "Hg10 mi
2:36 PM57 °FOvercast.10 mph63%30.05 "Hg10 mi
2:16 PM57 °FOvercast.8 mph63%30.05 "Hg10 mi
1:56 PM57 °FOvercast.10 mph63%30.05 "Hg10 mi
1:36 PM57 °FPartly sunny.8 mph63%30.05 "Hg10 mi
1:16 PM57 °FPartly sunny.6 mph63%30.05 "Hg10 mi
12:36 PM57 °FMostly cloudy.6 mph63%30.05 "Hg10 mi
12:16 PM55 °FOvercast.6 mph67%30.05 "Hg10 mi
11:56 AM54 °FOvercast.5 mph72%30.06 "Hg10 mi
11:36 AM54 °FOvercast.5 mph72%30.06 "Hg10 mi
11:16 AM54 °FOvercast.6 mph72%30.05 "Hg10 mi
10:56 AM54 °FOvercast.6 mph72%30.05 "Hg10 mi
10:36 AM52 °FOvercast.6 mph77%30.05 "Hg10 mi
10:16 AM52 °FPartly sunny.7 mph77%30.05 "Hg10 mi
9:56 AM52 °FPassing clouds.9 mph77%30.05 "Hg10 mi
9:36 AM52 °FPassing clouds.7 mph72%30.04 "Hg10 mi
9:16 AM52 °FPartly sunny.9 mph72%30.04 "Hg10 mi
8:56 AM50 °FOvercast.5 mph76%30.03 "Hg10 mi
8:36 AM50 °FOvercast.5 mph76%30.03 "Hg10 mi
8:16 AM50 °FMore clouds than sun.8 mph76%30.03 "Hg10 mi
7:56 AM50 °FMostly cloudy.8 mph76%30.02 "Hg10 mi
7:36 AM50 °FOvercast.7 mph76%30.02 "Hg10 mi
7:16 AM50 °FOvercast.5 mph76%30.02 "Hg10 mi
6:56 AM50 °FOvercast.3 mph76%30.02 "Hg10 mi
6:36 AM50 °FOvercast.No wind76%30.02 "Hg10 mi
6:16 AM50 °FOvercast.No wind76%30.02 "Hg10 mi
5:56 AM50 °FOvercast.3 mph76%30.02 "Hg10 mi
5:36 AM50 °FMostly cloudy.5 mph76%30.02 "Hg10 mi
5:16 AM50 °FOvercast.7 mph76%30.02 "Hg10 mi
4:56 AM50 °FPassing clouds.8 mph76%30.01 "Hg10 mi
4:36 AM50 °FPassing clouds.7 mph76%30.01 "Hg10 mi
4:16 AM50 °FOvercast.9 mph76%30.01 "Hg10 mi
3:56 AM50 °FOvercast.7 mph76%30.01 "Hg10 mi
3:36 AM50 °FOvercast.7 mph76%30.01 "Hg10 mi
3:16 AM50 °FOvercast.6 mph76%30.01 "Hg10 mi
2:56 AM50 °FOvercast.No wind76%30.00 "Hg10 mi
2:36 AM50 °FOvercast.3 mph76%30.00 "Hg10 mi
2:16 AM50 °FOvercast.6 mph76%30.00 "Hg10 mi
Weather by CustomWeather, © 2015

See weather overviewHow to use our weather pages